Location: Appeville
(49.3218°N, 1.3427°W)
Time: 18:56:55
(UTC+00:00)

Cosmos 2242 Rocket - Pass Details

Date: 08 December 2019
Orbit: 617 x 652 km, 82.5° (Epoch: 29 January)

Event Time Altitude Azimuth Distance (km) Brightness Sun altitude
Exits shadow 05:21:42 62° 237° (WSW) 729 3.6 -22.6°
Drops below altitude 10° 05:25:49 10° 183° (S) 2,029 6.3 -22.0°
Sets 05:28:03 0° 181° (S) 2,927 7.1 -21.6°
